{"data":{"norad_id":58685,"intl_designator":"2023-211U","name":"STARLINK-31121","alt_names":[],"object_type":"PAYLOAD","status":"ACTIVE","operator":null,"country":"US","launch_date":"2023-12-29","launch_site_code":"AFETR","launch_vehicle":null,"mission":null,"orbit_class":"UNKNOWN","rcs_meters":null,"size_class":null,"mass_kg":null,"dimensions":null,"purposes":["comms"],"wikipedia_slug":null,"has_3d_model":false,"image_url":null,"decayed_at":null,"tle_current":{"epoch":"2026-09-19T22:02:32.105760Z","epoch_age_seconds":200041,"freshness":"STALE","line1":"1 58685U 23211U   26262.91842715 -.00000092  00000+0  61877-5 0  9991","line2":"2 58685  43.0070  68.0055 0002389 271.1548  88.9030 15.27579430152179","mean_motion":15.2757943,"eccentricity":0.0002389,"inclination_deg":43.007,"raan_deg":68.0055,"arg_perigee_deg":271.1548,"mean_anomaly_deg":88.903,"bstar":6.1877e-6,"rev_number":15217,"period_min":94.266783888285,"perigee_km":481.41166505915,"apogee_km":484.68994059134,"semimajor_km":6861.1878028252,"source":"CELESTRAK","updated_at":"2026-09-21T09:00:33.945890Z"}}}